KAL5216 RKPC-RKSS

Flight info

Callsign KAL5216
Flight time 0h 44m
Altitude 21000
Route KAMIT Y722 DOTOL
Aircraft B738/M-V/N

Departure

Time 2026-05-05 14:32
Airport Jeju International Airport (RKPC)

Arrival

Time 2026-05-05 15:16
Airport Gimpo International Airport (RKSS)
Time Latitude Longitude Altitude Speed Heading
2026-05-05 14:03 33.50758 126.49242 127 ft 0 kts 171°
2026-05-05 14:20 33.50759 126.49242 127 ft 0 kts 170°
2026-05-05 14:23 33.50760 126.49242 127 ft 0 kts 170°
2026-05-05 14:23 33.50774 126.49239 127 ft 2 kts 171°
2026-05-05 14:23 33.50789 126.49236 127 ft 2 kts 171°
2026-05-05 14:23 33.50798 126.49234 127 ft 1 kts 171°
2026-05-05 14:24 33.50812 126.49229 127 ft 2 kts 139°
2026-05-05 14:24 33.50822 126.49214 127 ft 2 kts 110°
2026-05-05 14:24 33.50824 126.49196 127 ft 2 kts 80°
2026-05-05 14:24 33.50820 126.49184 127 ft 0 kts 59°
2026-05-05 14:25 33.50816 126.49177 127 ft 0 kts 56°
2026-05-05 14:27 33.50817 126.49178 127 ft 1 kts 56°
2026-05-05 14:27 33.50825 126.49193 127 ft 3 kts 57°
2026-05-05 14:27 33.50841 126.49223 127 ft 5 kts 57°
2026-05-05 14:27 33.50864 126.49265 127 ft 7 kts 58°
2026-05-05 14:28 33.50893 126.49324 127 ft 9 kts 59°
2026-05-05 14:28 33.50928 126.49397 127 ft 11 kts 60°
2026-05-05 14:28 33.50959 126.49487 127 ft 12 kts 98°
2026-05-05 14:28 33.50920 126.49577 127 ft 12 kts 124°
2026-05-05 14:29 33.50866 126.49667 127 ft 13 kts 126°
2026-05-05 14:29 33.50807 126.49765 127 ft 15 kts 126°
2026-05-05 14:29 33.50743 126.49874 127 ft 16 kts 125°
2026-05-05 14:29 33.50670 126.49997 127 ft 18 kts 126°
2026-05-05 14:30 33.50594 126.50128 127 ft 19 kts 124°
2026-05-05 14:30 33.50524 126.50249 127 ft 15 kts 124°
2026-05-05 14:30 33.50525 126.50348 127 ft 11 kts 40°
2026-05-05 14:30 33.50589 126.50337 127 ft 8 kts 314°
2026-05-05 14:31 33.50595 126.50328 127 ft 0 kts 306°
2026-05-05 14:31 33.50596 126.50327 127 ft 1 kts 306°
2026-05-05 14:32 33.50719 126.50121 127 ft 73 kts 305°
2026-05-05 14:32 33.51174 126.49358 128 ft 150 kts 305°
2026-05-05 14:32 33.51876 126.48159 399 ft 190 kts 304°
2026-05-05 14:32 33.52682 126.46783 1011 ft 214 kts 304°
2026-05-05 14:33 33.53595 126.45271 1752 ft 235 kts 306°
2026-05-05 14:33 33.54596 126.43654 2454 ft 253 kts 306°
2026-05-05 14:33 33.55868 126.42122 3135 ft 270 kts 329°
2026-05-05 14:33 33.57644 126.41564 4179 ft 270 kts
2026-05-05 14:34 33.59411 126.42281 5035 ft 276 kts 32°
2026-05-05 14:34 33.61007 126.43483 6181 ft 272 kts 31°
2026-05-05 14:34 33.62624 126.44561 7199 ft 271 kts 27°
2026-05-05 14:34 33.64320 126.45507 8019 ft 278 kts 22°
2026-05-05 14:35 33.66138 126.46368 8811 ft 285 kts 22°
2026-05-05 14:35 33.67974 126.47285 9657 ft 289 kts 23°
2026-05-05 14:35 33.69814 126.48227 10375 ft 298 kts 23°
2026-05-05 14:35 33.71826 126.49260 10599 ft 324 kts 23°
2026-05-05 14:36 33.73953 126.50357 10975 ft 344 kts 23°
2026-05-05 14:36 33.76218 126.51528 11494 ft 357 kts 23°
2026-05-05 14:36 33.78497 126.52708 12222 ft 362 kts 23°
2026-05-05 14:36 33.80840 126.53922 12894 ft 369 kts 23°
2026-05-05 14:37 33.83204 126.55148 13593 ft 374 kts 22°
2026-05-05 14:37 33.85589 126.56386 14255 ft 379 kts 22°
2026-05-05 14:37 33.88004 126.57640 14907 ft 384 kts 22°
2026-05-05 14:37 33.90486 126.58930 15553 ft 389 kts 22°
2026-05-05 14:38 33.92960 126.60216 16165 ft 394 kts 22°
2026-05-05 14:38 33.95486 126.61531 16773 ft 398 kts 22°
2026-05-05 14:38 33.98060 126.62872 17371 ft 403 kts 22°
2026-05-05 14:38 34.00628 126.64210 17940 ft 407 kts 22°
2026-05-05 14:39 34.03245 126.65574 18499 ft 412 kts 22°
2026-05-05 14:39 34.05874 126.66946 19039 ft 416 kts 22°
2026-05-05 14:39 34.08538 126.68336 19561 ft 420 kts 22°
2026-05-05 14:39 34.11245 126.69750 20083 ft 424 kts 22°
2026-05-05 14:40 34.13992 126.71186 20586 ft 428 kts 22°
2026-05-05 14:40 34.16742 126.72625 21042 ft 430 kts 22°
2026-05-05 14:40 34.19501 126.74069 21105 ft 435 kts 22°
2026-05-05 14:40 34.22289 126.75485 21118 ft 434 kts 19°
2026-05-05 14:41 34.25142 126.76626 21119 ft 430 kts 13°
2026-05-05 14:41 34.28028 126.77347 21122 ft 427 kts
2026-05-05 14:41 34.30961 126.77683 21119 ft 427 kts
2026-05-05 14:41 34.33915 126.77983 21119 ft 427 kts
2026-05-05 14:42 34.36876 126.78320 21119 ft 427 kts
2026-05-05 14:42 34.39831 126.78655 21118 ft 427 kts
2026-05-05 14:42 34.42789 126.78981 21118 ft 427 kts
2026-05-05 14:42 34.45726 126.79300 21120 ft 428 kts
2026-05-05 14:43 34.48698 126.79623 21117 ft 427 kts
2026-05-05 14:43 34.51669 126.79944 21118 ft 426 kts
2026-05-05 14:43 34.54608 126.80260 21119 ft 427 kts
2026-05-05 14:43 34.57600 126.80582 21119 ft 427 kts
2026-05-05 14:44 34.60560 126.80900 21118 ft 427 kts
2026-05-05 14:44 34.63526 126.81219 21119 ft 427 kts
2026-05-05 14:44 34.66479 126.81535 21118 ft 427 kts
2026-05-05 14:44 34.69433 126.81853 21118 ft 427 kts
2026-05-05 14:45 34.72407 126.82172 21119 ft 427 kts
2026-05-05 14:45 34.75343 126.82488 21118 ft 427 kts
2026-05-05 14:45 34.78308 126.82806 21118 ft 427 kts
2026-05-05 14:45 34.81271 126.83124 21118 ft 427 kts
2026-05-05 14:46 34.84215 126.83441 21118 ft 427 kts
2026-05-05 14:46 34.87172 126.83759 21118 ft 427 kts
2026-05-05 14:46 34.90173 126.84083 21119 ft 427 kts
2026-05-05 14:46 34.93088 126.84397 21118 ft 426 kts
2026-05-05 14:47 34.96046 126.84717 21118 ft 423 kts
2026-05-05 14:47 34.98969 126.85033 21118 ft 421 kts
2026-05-05 14:47 35.01864 126.85346 21118 ft 417 kts
2026-05-05 14:47 35.04760 126.85660 21118 ft 413 kts 360°
2026-05-05 14:48 35.07647 126.85972 21119 ft 413 kts 360°
2026-05-05 14:48 35.10488 126.86278 21119 ft 414 kts 360°
2026-05-05 14:48 35.13340 126.86586 21119 ft 414 kts 360°
2026-05-05 14:48 35.16204 126.86897 21118 ft 414 kts 360°
2026-05-05 14:49 35.19084 126.87209 21118 ft 414 kts 360°
2026-05-05 14:49 35.21948 126.87520 21119 ft 414 kts 360°
2026-05-05 14:49 35.24820 126.87832 21118 ft 414 kts 360°
2026-05-05 14:49 35.27706 126.88145 21118 ft 414 kts 360°
2026-05-05 14:50 35.30578 126.88457 21118 ft 414 kts 360°
2026-05-05 14:50 35.33431 126.88769 21119 ft 414 kts 360°
2026-05-05 14:50 35.36301 126.89082 21119 ft 414 kts 360°
2026-05-05 14:50 35.39164 126.89394 21118 ft 414 kts 360°
2026-05-05 14:51 35.42038 126.89707 21118 ft 414 kts 360°
2026-05-05 14:51 35.44922 126.90022 21119 ft 414 kts 360°
2026-05-05 14:51 35.47795 126.90337 21118 ft 414 kts 360°
2026-05-05 14:51 35.50629 126.90646 21119 ft 414 kts 360°
2026-05-05 14:52 35.53489 126.90958 21119 ft 414 kts 360°
2026-05-05 14:52 35.56364 126.91273 21118 ft 414 kts 360°
2026-05-05 14:52 35.59236 126.91587 21118 ft 414 kts 360°
2026-05-05 14:52 35.62071 126.91898 21118 ft 414 kts 360°
2026-05-05 14:53 35.64954 126.92213 21119 ft 414 kts 360°
2026-05-05 14:53 35.67810 126.92526 21118 ft 414 kts 360°
2026-05-05 14:53 35.70662 126.92839 21118 ft 414 kts 360°
2026-05-05 14:53 35.73547 126.93156 21119 ft 414 kts 360°
2026-05-05 14:54 35.76409 126.93470 21118 ft 414 kts 360°
2026-05-05 14:54 35.79265 126.93784 21118 ft 414 kts 360°
2026-05-05 14:54 35.82152 126.94102 21118 ft 414 kts 360°
2026-05-05 14:54 35.84984 126.94414 21118 ft 414 kts 360°
2026-05-05 14:55 35.87868 126.94731 21119 ft 414 kts 360°
2026-05-05 14:55 35.90746 126.95049 21118 ft 414 kts 360°
2026-05-05 14:55 35.93605 126.95364 21119 ft 414 kts 360°
2026-05-05 14:55 35.96451 126.95679 21118 ft 414 kts 360°
2026-05-05 14:56 35.99326 126.95997 21118 ft 414 kts 360°
2026-05-05 14:56 36.02192 126.96314 21118 ft 414 kts 360°
2026-05-05 14:56 36.05069 126.96633 21119 ft 414 kts 360°
2026-05-05 14:56 36.07955 126.96953 21118 ft 414 kts 360°
2026-05-05 14:57 36.10812 126.97270 21119 ft 414 kts 360°
2026-05-05 14:57 36.13683 126.97589 21119 ft 414 kts 360°
2026-05-05 14:57 36.16560 126.97908 21108 ft 415 kts 360°
2026-05-05 14:57 36.19452 126.98225 20874 ft 429 kts
2026-05-05 14:58 36.22492 126.98558 20626 ft 442 kts
2026-05-05 14:58 36.25547 126.98898 20370 ft 445 kts
2026-05-05 14:58 36.28622 126.99246 20115 ft 442 kts
2026-05-05 14:58 36.31659 126.99588 19863 ft 439 kts
2026-05-05 14:59 36.34690 126.99927 19612 ft 437 kts
2026-05-05 14:59 36.37733 127.00264 19360 ft 435 kts
2026-05-05 14:59 36.40758 127.00364 19107 ft 430 kts 354°
2026-05-05 14:59 36.43695 127.00217 18861 ft 427 kts 353°
2026-05-05 15:00 36.46684 127.00076 18608 ft 426 kts 354°
2026-05-05 15:00 36.48636 127.00005 18442 ft 425 kts 354°
2026-05-05 15:00 36.52582 126.99865 18106 ft 422 kts 354°
2026-05-05 15:00 36.55456 126.99759 17850 ft 411 kts 354°
2026-05-05 15:01 36.58260 126.99658 17597 ft 396 kts 354°
2026-05-05 15:01 36.60969 126.99563 17348 ft 382 kts 354°
2026-05-05 15:01 36.63590 126.99468 17101 ft 377 kts 354°
2026-05-05 15:01 36.66206 126.99371 16855 ft 378 kts 354°
2026-05-05 15:02 36.68828 126.99276 16606 ft 377 kts 354°
2026-05-05 15:02 36.71461 126.99391 16346 ft 380 kts
2026-05-05 15:02 36.74014 127.00147 16110 ft 382 kts 12°
2026-05-05 15:02 36.76610 127.01014 15863 ft 388 kts 11°
2026-05-05 15:03 36.79170 127.01814 15599 ft 376 kts 11°
2026-05-05 15:03 36.81706 127.02616 15360 ft 375 kts 11°
2026-05-05 15:03 36.84187 127.03422 15039 ft 355 kts 12°
2026-05-05 15:03 36.86488 127.04173 14513 ft 340 kts 12°
2026-05-05 15:04 36.88730 127.04902 13921 ft 331 kts 12°
2026-05-05 15:04 36.90928 127.05617 13261 ft 327 kts 12°
2026-05-05 15:04 36.93128 127.06337 12660 ft 323 kts 12°
2026-05-05 15:04 36.95273 127.07040 12081 ft 321 kts 13°
2026-05-05 15:05 36.99535 127.08440 11266 ft 314 kts 12°
2026-05-05 15:05 37.01658 127.09138 11019 ft 312 kts 12°
2026-05-05 15:05 37.03753 127.09827 10882 ft 309 kts 12°
2026-05-05 15:06 37.05753 127.10487 10731 ft 291 kts 12°
2026-05-05 15:06 37.07659 127.11117 10599 ft 278 kts 11°
2026-05-05 15:06 37.09542 127.11735 10453 ft 276 kts 11°
2026-05-05 15:06 37.11404 127.12348 10313 ft 276 kts 11°
2026-05-05 15:07 37.13257 127.12959 10128 ft 277 kts 11°
2026-05-05 15:07 37.15127 127.13576 9816 ft 276 kts 11°
2026-05-05 15:07 37.16978 127.14188 9470 ft 273 kts 11°
2026-05-05 15:07 37.18780 127.14784 9141 ft 270 kts 11°
2026-05-05 15:08 37.20599 127.15385 8809 ft 267 kts 11°
2026-05-05 15:08 37.22375 127.15971 8487 ft 265 kts 11°
2026-05-05 15:08 37.24180 127.16307 8160 ft 259 kts 354°
2026-05-05 15:08 37.25884 127.15746 7836 ft 254 kts 330°
2026-05-05 15:09 37.27283 127.14440 7477 ft 252 kts 315°
2026-05-05 15:09 37.28511 127.12901 7110 ft 252 kts 315°
2026-05-05 15:09 37.29761 127.11362 6748 ft 251 kts 315°
2026-05-05 15:09 37.31000 127.09830 6390 ft 249 kts 315°
2026-05-05 15:10 37.32227 127.08305 6052 ft 247 kts 315°
2026-05-05 15:10 37.33433 127.06791 6009 ft 245 kts 315°
2026-05-05 15:10 37.34660 127.05258 5739 ft 253 kts 315°
2026-05-05 15:10 37.35892 127.03725 5400 ft 251 kts 315°
2026-05-05 15:11 37.37125 127.02193 5053 ft 249 kts 315°
2026-05-05 15:11 37.38352 127.00664 4701 ft 247 kts 315°
2026-05-05 15:11 37.39573 126.99143 4349 ft 246 kts 315°
2026-05-05 15:11 37.40779 126.97639 4002 ft 245 kts 316°
2026-05-05 15:12 37.41983 126.96137 3689 ft 239 kts 316°
2026-05-05 15:12 37.43147 126.94685 3342 ft 227 kts 316°
2026-05-05 15:12 37.44226 126.93338 3002 ft 215 kts 316°
2026-05-05 15:12 37.45261 126.92044 2705 ft 203 kts 316°
2026-05-05 15:13 37.46220 126.90847 2458 ft 189 kts 316°
2026-05-05 15:13 37.47117 126.89724 2202 ft 174 kts 316°
2026-05-05 15:13 37.47933 126.88704 1975 ft 155 kts 316°
2026-05-05 15:13 37.48677 126.87773 1784 ft 152 kts 316°
2026-05-05 15:14 37.49428 126.86834 1562 ft 152 kts 316°
2026-05-05 15:14 37.50178 126.85895 1354 ft 152 kts 316°
2026-05-05 15:14 37.50919 126.84968 1149 ft 151 kts 316°
2026-05-05 15:14 37.51666 126.84032 946 ft 152 kts 315°
2026-05-05 15:15 37.52407 126.83102 784 ft 150 kts 315°
2026-05-05 15:15 37.53137 126.82179 572 ft 148 kts 315°
2026-05-05 15:15 37.53870 126.81258 374 ft 149 kts 315°
2026-05-05 15:15 37.54595 126.80351 142 ft 146 kts 315°
2026-05-05 15:16 37.55292 126.79481 50 ft 126 kts 315°
2026-05-05 15:16 37.55780 126.78867 67 ft 79 kts 317°
2026-05-05 15:16 37.56116 126.78464 60 ft 55 kts 325°
2026-05-05 15:16 37.56422 126.78331 58 ft 38 kts 10°
2026-05-05 15:17 37.56557 126.78429 61 ft 14 kts 46°
2026-05-05 15:17 37.56623 126.78516 59 ft 15 kts 47°
2026-05-05 15:17 37.56647 126.78654 57 ft 20 kts 134°
2026-05-05 15:17 37.56543 126.78786 60 ft 23 kts 135°
2026-05-05 15:18 37.56430 126.78928 66 ft 22 kts 134°
2026-05-05 15:18 37.56303 126.79087 67 ft 27 kts 135°
2026-05-05 15:18 37.56166 126.79259 70 ft 28 kts 135°
2026-05-05 15:18 37.56031 126.79430 73 ft 18 kts 130°
2026-05-05 15:19 37.55941 126.79555 78 ft 19 kts 109°
2026-05-05 15:19 37.55928 126.79720 80 ft 19 kts 98°
2026-05-05 15:19 37.55908 126.79902 83 ft 22 kts 101°
2026-05-05 15:19 37.55826 126.80051 80 ft 16 kts 134°
2026-05-05 15:20 37.55796 126.80140 77 ft 6 kts 41°
2026-05-05 15:20 37.55823 126.80170 78 ft 3 kts 41°
2026-05-05 15:20 37.55835 126.80184 78 ft 0 kts 44°
2026-05-05 15:20 37.55837 126.80187 78 ft 0 kts 44°
2026-05-05 15:21 37.55839 126.80190 78 ft 0 kts 44°